DECAYED

FALCON 9 DEB, 62718 (Decayed)

Orbit data source: Space-Track

FALCON 9 DEB, 62718 was space debris in HEO originally from a launch on Wed, 15 Jan 2025 UTC launched from the Air Force Eastern Test Range (AFETR). Debris objects in space refer to the collection of defunct objects orbiting the Earth. Examples of debris include non-operational satellites, rocket bodies, and fragments generated from explosions, collisions, or faulty payload assembly.

Loading next visibility...
Identifier
62718, 2025-010C
Orbit
Decayed
Last TLE update
6 months ago
Origin
Manufacturer
SpaceX
Mission
Decayed spacecraft
Bus & Motor
Unknown
Mass
~50 kg wet, ~50 kg dry
Launch date (UTC)
2025-01-15 (6 months ago)
Launch vehicle
Unknown
Launch site
Air Force Eastern Test Range (AFETR)
Object type
Payload
Rocket body
Debris
Shape & HBR
Cyl, 3 m
Radar Cross Section
5.890 m²

Expand to show TLE details & history

TLE from 6 months ago
0 FALCON 9 DEB
1 62718U 25010C   25015.29938097 -.00032000  26295-4  00000-0 0  9996
2 62718  35.0400 359.0739 9608400 346.4200   0.0135  0.12641706    06
Epoch: 2025-01-15T07:11Z
TLE epoch observation values (Epoch: 2025-01-15T07:11:06.515Z)
Latitude
27.93165°
Longitude
-94.20469°
Altitude
41,607.797 km
Speed
3.773 km/s
True Right ascension
08h 34m 15s
True Declination
27° 54' 38"
Sunlit
Object was in daylight at epoch
Visualization orbit readout
Visualization observer readout
Orbital elements
Apogee altitude
322,465.897 km
Perigee altitude
189.218 km
Semi-major axis
167,705.694 km
Eccentricity
0.96084
Inclination
35.04°
RAAN
359.0739°
Arg. of periapsis
346.42°
True anomaly
Unknown
Mean anomaly
0.0135°
Eccentric anomaly
Unknown
Mean motion
0.0316 °/min
Orbital period
11,391.5 mins
BSTAR
0
Loading maneuver chart data...
Loading SW <> Apogee altitude chart data...
Loading historical data...
Loading historical data...
Loading historical data...
Loading historical data...
Loading historical data...
Loading historical data...
Loading historical data...
Other satellites on launch #10 in the year 2025 (2025-01-15 UTC)

FALCON 9 DEB Visibility forecast

Observer location: undefined°, undefined°

Span
Click to sort rows by Start time (UTC) header in descending order
Start Az.
Max El. time (UTC)
Max El. Az.
Max El.
End time (UTC)
End Az.
615 mins2025-07-05 18:25:27.826Z96.853° ESE2025-07-05 23:34:27.826Z179.816° S37.832°2025-07-06 04:40:27.826Z261.684° W
|